Midland City, AL

11:59 AM CST on December 07, 2016 (GMT -0600)
Fort Rucker / Ozark

Weather History for KHEY - April, 2014

Change the Weather History Date:

Monday, April 28, 2014

  Actual Average (KOZR) Record (KOZR)
Temperature  
Mean Temperature 74 °F -  
Max Temperature 84 °F 76 °F 87 °F (2002)
Min Temperature 64 °F 55 °F 44 °F (2004)
Cooling Degree Days 9    
Growing Degree Days 24 (Base 50)    
Moisture  
Dew Point 68 °F    
Average Humidity 83    
Maximum Humidity 100    
Minimum Humidity 53    
Precipitation  
Precipitation 0.00 in - - ()
Sea Level Pressure  
Sea Level Pressure 29.67 in    
Wind  
Wind Speed 6 mph (South)    
Max Wind Speed 13 mph    
Max Gust Speed 24 mph    
Visibility 7 miles    
Events Fog    
Averages and records for this station are not official NWS values.
T = Trace of Precipitation, MM = Missing Value Source: NWS Daily Summary

Daily Weather History Graph

Daily Weather History Graph

Search for Another Location

Airport or City:

Trip Planner

Search our weather history database for the weather conditions in past years. The results will help you decide how hot, cold, wet, or windy it might be!

Date:

Astronomy

Apr. 28, 2014 Rise Set
Actual Time 6:00 AM CDT 7:20 PM CDT
Civil Twilight 5:35 AM CDT 7:45 PM CDT
Nautical Twilight 5:04 AM CDT 8:16 PM CDT
Astronomical Twilight 4:32 AM CDT 8:48 PM CDT
Moon 5:34 AM CDT (4/28) 6:59 PM CDT (4/28)
Length of Visible Light 14h 10m
Length of Day
13h 19m
Waning Crescent, 0% of the Moon is Illuminated
Apr 28
Waning Crescent
Apr 29
New
May 6
First Quarter
May 14
Full
May 21
Last Quarter

Hourly Weather History & Observations

Time (CDT) Temp. Heat Index Dew Point Humidity Pressure Visibility Wind Dir Wind Speed Gust Speed Precip Events Conditions
1:53 AM 64.9 °F - 62.1 °F 90% 29.55 in 10.0 mi SSE 3.5 mph - N/A   Scattered Clouds
2:04 AM 64.9 °F - 63.0 °F 93% 29.88 in 10.0 mi SSE 3.5 mph - N/A   Mostly Cloudy
2:38 AM 64.9 °F - 63.0 °F 93% 29.87 in 9.0 mi SE 4.6 mph - N/A   Scattered Clouds
2:53 AM 64.9 °F - 63.0 °F 93% 29.54 in 7.0 mi SE 4.6 mph - N/A   Clear
3:04 AM 66.0 °F - 64.0 °F 93% 29.87 in 6.0 mi SSE 4.6 mph - N/A   Mostly Cloudy
3:17 AM 66.0 °F - 64.0 °F 93% 29.87 in 6.0 mi SE 4.6 mph - N/A   Mostly Cloudy
3:30 AM 66.0 °F - 64.9 °F 96% 29.87 in 6.0 mi SSE 3.5 mph - N/A   Overcast
3:53 AM 66.9 °F - 66.0 °F 97% 29.53 in 1.8 mi SSE 8.1 mph - N/A   Overcast
4:10 AM 66.9 °F - 66.0 °F 97% 29.86 in 0.5 mi SSE 5.8 mph - N/A Fog Fog
4:53 AM 66.9 °F - 66.9 °F 100% 29.53 in 0.5 mi SSE 5.8 mph - N/A Fog Fog
5:19 AM 68.0 °F - 66.9 °F 96% 29.86 in 1.0 mi South 4.6 mph - N/A   Overcast
5:39 AM 68.0 °F - 68.0 °F 100% 29.86 in 0.8 mi South 3.5 mph - N/A   Mist
5:53 AM 68.0 °F - 68.0 °F 100% 29.54 in 1.0 mi South 5.8 mph - N/A   Mist
6:43 AM 69.1 °F - 69.1 °F 100% 29.88 in 2.0 mi South 4.6 mph - N/A   Overcast
6:53 AM 69.1 °F - 69.1 °F 100% 29.55 in 2.5 mi SSE 4.6 mph - N/A   Overcast
7:10 AM 70.0 °F - 69.1 °F 97% 29.88 in 3.0 mi SSE 5.8 mph - N/A   Overcast
7:36 AM 70.0 °F - 69.1 °F 97% 29.88 in 5.0 mi South 5.8 mph - N/A   Overcast
7:53 AM 71.1 °F - 69.1 °F 93% 29.55 in 5.0 mi South 6.9 mph - N/A   Overcast
8:40 AM 73.0 °F - 69.1 °F 87% 29.89 in 7.0 mi Variable 6.9 mph - N/A   Overcast
8:53 AM 73.9 °F - 70.0 °F 87% 29.57 in 7.0 mi South 6.9 mph - N/A   Overcast
9:02 AM 75.0 °F - 70.0 °F 84% 29.89 in 8.0 mi South 9.2 mph - N/A   Mostly Cloudy
9:11 AM 75.9 °F - 69.1 °F 79% 29.89 in 9.0 mi South 10.4 mph - N/A   Mostly Cloudy
9:53 AM 78.1 °F - 69.1 °F 74% 29.56 in 9.0 mi South 11.5 mph 17.3 mph N/A   Mostly Cloudy
10:53 AM 80.1 °F 83.2 °F 70.0 °F 71% 29.56 in 9.0 mi South 10.4 mph 18.4 mph N/A   Mostly Cloudy
11:53 AM 82.0 °F 85.9 °F 70.0 °F 67% 29.55 in 10.0 mi South 8.1 mph - N/A   Scattered Clouds
12:53 PM 84.0 °F 87.8 °F 69.1 °F 61% 29.54 in 10.0 mi SSW 11.5 mph 19.6 mph N/A   Mostly Cloudy
1:53 PM 84.9 °F 87.1 °F 66.0 °F 53% 29.52 in 10.0 mi SSW 12.7 mph 23.0 mph N/A   Mostly Cloudy
2:53 PM 84.0 °F 86.3 °F 66.0 °F 55% 29.50 in 10.0 mi South 10.4 mph 23.0 mph N/A   Partly Cloudy
3:53 PM 84.9 °F 87.1 °F 66.0 °F 53% 29.48 in 10.0 mi SSW 10.4 mph 24.2 mph N/A   Partly Cloudy
4:53 PM 84.0 °F 86.5 °F 66.9 °F 56% 29.47 in 10.0 mi South 9.2 mph 21.9 mph N/A   Scattered Clouds
5:53 PM 82.0 °F 84.5 °F 66.9 °F 60% 29.45 in 10.0 mi South 12.7 mph 21.9 mph N/A   Clear
6:53 PM 79.0 °F - 68.0 °F 69% 29.44 in 10.0 mi South 8.1 mph - N/A   Clear
7:53 PM 78.1 °F - 68.0 °F 71% 29.47 in 10.0 mi South 5.8 mph - N/A   Partly Cloudy
8:53 PM 77.0 °F - 70.0 °F 79% 29.45 in 10.0 mi South 6.9 mph - N/A   Clear
9:49 PM 75.2 °F - 69.8 °F 83% 29.77 in 10.0 mi South 8.1 mph - N/A   Mostly Cloudy
10:45 PM 75.9 °F - 70.0 °F 82% 29.81 in 10.0 mi South 8.1 mph - N/A   Overcast
10:53 PM 75.9 °F - 71.1 °F 85% 29.47 in 10.0 mi SSE 8.1 mph - N/A   Overcast
11:03 PM 75.9 °F - 71.1 °F 85% 29.80 in 10.0 mi SSE 9.2 mph - N/A   Overcast
11:10 PM 75.9 °F - 70.0 °F 82% 29.80 in 10.0 mi SSE 8.1 mph - N/A   Overcast
11:53 PM 75.0 °F - 71.1 °F 87% 29.46 in 9.0 mi SSE 11.5 mph 18.4 mph N/A   Overcast